W6TQP Weather Reports


Display with metric or nautical units.
time (UTC)temp
F
wind
direction
speed
MPH
gust
MPH
rain 1hr
in
rain 24hr
in
rain mn
in
humidity
%
barometer
mb
20180623210003 76 123 5.0 8.0 0.00 0.00 0.00 52 1009.7
20180623204503 79 116 5.0 7.0 0.00 0.00 0.00 46 1009.7
20180623203004 78 131 3.0 6.0 0.00 0.00 0.00 48 1009.8
20180623201503 80 176 3.0 5.0 0.00 0.00 0.00 47 1009.8
20180623200003 80 167 1.0 6.0 0.00 0.00 0.00 47 1009.9
20180623194503 80 134 3.0 6.0 0.00 0.00 0.00 46 1010.0
20180623193003 81 150 2.0 6.0 0.00 0.00 0.00 47 1010.0
20180623191503 81 156 3.0 5.0 0.00 0.00 0.00 46 1010.0
20180623190003 80 130 1.0 5.0 0.00 0.00 0.00 48 1010.2
20180623184503 79 164 4.0 6.0 0.00 0.00 0.00 51 1010.1
20180623183004 80 168 0.0 3.0 0.00 0.00 0.00 48 1010.2
20180623181503 79 175 0.0 2.0 0.00 0.00 0.00 46 1010.3
20180623180005 78 18 1.0 3.0 0.00 0.00 0.00 47 1010.3
20180623174504 74 201 1.0 3.0 0.00 0.00 0.00 54 1010.2
20180623173004 73 113 1.0 3.0 0.00 0.00 0.00 58 1010.1
20180623171503 71 224 0.0 5.0 0.00 0.00 0.00 65 1010.1
20180623170003 69 175 0.0 0.0 0.00 0.00 0.00 68 1010.2
20180623164504 68 198 0.0 0.0 0.00 0.00 0.00 72 1010.3
20180623163004 66 167 0.0 0.0 0.00 0.00 0.00 75 1010.4
20180623161504 65 8 0.0 0.0 0.00 0.00 0.00 77 1010.5
20180623160003 63 58 0.0 0.0 0.00 0.00 0.00 80 1010.4
20180623154504 61 223 0.0 0.0 0.00 0.00 0.00 85 1010.4
20180623153004 60 202 0.0 0.0 0.00 0.00 0.00 88 1010.4
20180623151504 60 153 0.0 3.0 0.00 0.00 0.00 89 1010.4
20180623150004 59 145 0.0 0.0 0.00 0.00 0.00 90 1010.1
20180623144503 57 122 0.0 0.0 0.00 0.00 0.00 100 1010.2
20180623143004 55 201 0.0 0.0 0.00 0.00 0.00 100 1010.0
20180623141503 54 180 0.0 0.0 0.00 0.00 0.00 100 1010.0
20180623140003 53 145 0.0 0.0 0.00 0.00 0.00 100 1009.9
20180623134504 51 213 0.0 0.0 0.00 0.00 0.00 100 1010.0
20180623133004 50 112 0.0 0.0 0.00 0.00 0.00 100 1010.1
20180623131503 50 178 0.0 0.0 0.00 0.00 0.00 100 1010.1
20180623130003 50 158 0.0 0.0 0.00 0.00 0.00 100 1009.9
20180623124504 50 187 0.0 0.0 0.00 0.00 0.00 100 1009.9
20180623123004 50 214 0.0 0.0 0.00 0.00 0.00 100 1009.9
20180623121504 50 120 0.0 0.0 0.00 0.00 0.00 100 1010.0
20180623120004 50 225 0.0 0.0 0.00 0.00 0.00 100 1009.8
20180623114503 51 119 0.0 0.0 0.00 0.00 0.00 100 1009.9
20180623113004 50 248 0.0 0.0 0.00 0.00 0.00 100 1009.8
20180623111503 51 158 0.0 0.0 0.00 0.00 0.00 100 1009.9
20180623110003 51 180 0.0 0.0 0.00 0.00 0.00 100 1009.9
20180623104504 51 158 0.0 0.0 0.00 0.00 0.00 100 1010.0
20180623103003 51 112 0.0 0.0 0.00 0.00 0.00 100 1010.1
20180623101504 51 338 0.0 0.0 0.00 0.00 0.00 100 1010.1
20180623100004 51 113 0.0 0.0 0.00 0.00 0.00 100 1010.2
20180623094504 51 135 0.0 0.0 0.00 0.00 0.00 100 1010.4
20180623093004 52 135 0.0 0.0 0.00 0.00 0.00 100 1010.3
20180623090004 52 112 0.0 0.0 0.00 0.00 0.00 100 1010.4
20180623084504 52 180 0.0 0.0 0.00 0.00 0.00 100 1010.3
20180623083004 52 189 0.0 0.0 0.00 0.00 0.00 100 1010.5
20180623081504 52 112 0.0 0.0 0.00 0.00 0.00 100 1010.6
20180623080004 52 189 0.0 0.0 0.00 0.00 0.00 100 1010.6
20180623074504 53 113 0.0 0.0 0.00 0.00 0.00 100 1010.8
20180623073004 53 285 0.0 0.0 0.00 0.00 0.00 100 1010.9
20180623071503 52 289 0.0 0.0 0.00 0.00 0.00 100 1011.0
20180623070004 52 266 0.0 0.0 0.00 0.00 0.00 97 1011.0
20180623064504 53 158 0.0 0.0 0.00 0.00 0.00 97 1011.1
20180623063004 53 202 0.0 0.0 0.00 0.00 0.00 96 1011.2
20180623061504 53 180 0.0 0.0 0.00 0.00 0.00 95 1011.4
20180623060004 54 70 0.0 0.0 0.00 0.00 0.00 95 1011.5
20180623054504 54 180 0.0 0.0 0.00 0.00 0.00 97 1011.4
20180623053004 55 202 0.0 0.0 0.00 0.00 0.00 97 1011.6
20180623051504 55 0 0.0 0.0 0.00 0.00 0.00 95 1011.7
20180623050004 55 112 0.0 0.0 0.00 0.00 0.00 92 1011.5
20180623044504 56 202 0.0 0.0 0.00 0.00 0.00 90 1011.5
20180623043004 56 150 0.0 0.0 0.00 0.00 0.00 90 1011.4
20180623041504 57 180 0.0 0.0 0.00 0.00 0.00 88 1011.4
20180623040003 58 202 0.0 0.0 0.00 0.00 0.00 87 1011.3
20180623034503 59 180 0.0 0.0 0.00 0.00 0.00 84 1011.3
20180623033002 59 170 0.0 0.0 0.00 0.00 0.00 85 1011.4
20180623031502 60 158 0.0 0.0 0.00 0.00 0.00 84 1011.3
20180623030001 61 121 0.0 0.0 0.00 0.00 0.00 81 1011.3
20180623024501 62 171 0.0 0.0 0.00 0.00 0.00 77 1011.3
20180623023001 63 225 0.0 0.0 0.00 0.00 0.00 76 1011.3
20180623021501 63 179 0.0 0.0 0.00 0.00 0.00 76 1011.4
20180623020001 63 180 0.0 0.0 0.00 0.00 0.00 76 1011.3
20180623014501 64 134 0.0 5.0 0.00 0.00 0.00 74 1011.4
20180623013002 66 127 2.0 6.0 0.00 0.00 0.00 70 1011.3
20180623011501 67 160 5.0 6.0 0.00 0.00 0.00 68 1011.4
20180623010002 70 127 2.0 6.0 0.00 0.00 0.00 61 1011.4
20180623004502 69 135 5.0 6.0 0.00 0.00 0.00 61 1011.5
20180623003001 71 166 5.0 7.0 0.00 0.00 0.00 56 1011.5
20180623001501 72 139 5.0 7.0 0.00 0.00 0.00 56 1011.6
20180623000001 70 124 6.0 7.0 0.00 0.00 0.00 57 1012.0
20180622234503 74 112 5.0 6.0 0.00 0.00 0.00 52 1012.1
20180622233002 75 158 5.0 7.0 0.00 0.00 0.00 52 1012.2
20180622231501 76 158 5.0 7.0 0.00 0.00 0.00 50 1012.3
20180622230001 74 146 5.0 7.0 0.00 0.00 0.00 52 1012.6
20180622224502 75 135 3.0 6.0 0.00 0.00 0.00 52 1012.9
20180622223002 73 146 5.0 6.0 0.00 0.00 0.00 53 1012.9
20180622221501 74 90 3.0 6.0 0.00 0.00 0.00 52 1013.1
20180622220001 73 136 3.0 6.0 0.00 0.00 0.00 53 1013.2
20180622214501 73 180 4.0 6.0 0.00 0.00 0.00 55 1013.4
20180622213002 73 156 3.0 8.0 0.00 0.00 0.00 56 1013.5
20180622211502 75 122 4.0 7.0 0.00 0.00 0.00 56 1013.5